Torna al catalogo

RADIO 8

AttivoRadioamatorePO
NORAD 12998·PAYLOAD·🇷🇺 Russia

Lanciato Dec 17, 1981 da Plesetsk Cosmodrome

Loading…

Prossimi Passaggi (prossime 24 ore)

TLE

AggiornatoSource: Space-Track

Epoca: Sep 14, 2026, 00:14 UTC

1 12998U 81120B   26257.01023669 -.00000056  00000-0 -78239-3 0  9995
2 12998  82.9536  72.8146 0018741 302.6332 217.6154 12.03199915964849

Traccia RADIO 8 in tempo reale con AllMySat

Download on the App Store